Weather History for Rawlins, WY

Change the Weather History Date:

Monday, October 24, 2011

  Actual Average Record
Temperature  
Mean Temperature 52 °F 40 °F  
Max Temperature 67 °F 53 °F 73 °F (1992)
Min Temperature 36 °F 28 °F 8 °F (1975)
Degree Days  
Heating Degree Days 13 25  
Month to date heating degree days 386 488  
Since 1 July heating degree days 617 874  
Cooling Degree Days 0 0  
Month to date cooling degree days 0 0  
Year to date cooling degree days 242 186  
Moisture  
Dew Point 20 °F    
Average Humidity 32    
Maximum Humidity 48    
Minimum Humidity 16    
Precipitation  
Precipitation 0.00 in 0.02 in 1.01 in (1956)
Month to date precipitation 0.58 0.61  
Year to date precipitation 8.24 8.13  
Sea Level Pressure  
Sea Level Pressure 29.89 in    
Wind  
Wind Speed 14 mph (SW)    
Max Wind Speed 35 mph    
Max Gust Speed 44 mph    
Visibility 10 miles    
Events      
T = Trace of Precipitation, MM = Missing Value Source: NWS Daily Summary

Daily Weather History Graph

Daily Weather History Graph

Search for Another Location

Airport:

Trip Planner

Search our weather history database for the weather conditions in past years. The results will help you decide how hot, cold, wet, or windy it might be!

Date:

Astronomy

Oct. 24, 2011 Rise Set
Actual Time 7:31 AM MDT 6:14 PM MDT
Civil Twilight 7:02 AM MDT 6:42 PM MDT
Nautical Twilight 6:30 AM MDT 7:15 PM MDT
Astronomical Twilight 5:57 AM MDT 7:47 PM MDT
Moon 4:51 AM MDT (10/24) 4:41 PM MDT (10/24)
Length of Visible Light 11h 39m
Length of Day
10h 42m
Waning Crescent, 7% of the Moon is Illuminated
Oct 24
Waning Crescent
Oct 26
New
Nov 2
First Quarter
Nov 10
Full
Nov 18
Last Quarter

Hourly Weather History & Observations

Time (MDT) Temp. Windchill Dew Point Humidity Pressure Visibility Wind Dir Wind Speed Gust Speed Precip Events Conditions
12:53 AM 46.0 °F 41.4 °F 19.9 °F 35% 30.01 in 10.0 mi WSW 9.2 mph - N/A   Clear
1:53 AM 39.9 °F - 19.0 °F 43% 30.01 in 10.0 mi Calm Calm - N/A   Clear
2:53 AM 41.0 °F 35.8 °F 19.9 °F 43% 30.00 in 10.0 mi WSW 8.1 mph - N/A   Clear
3:53 AM 37.0 °F - 19.9 °F 50% 30.00 in 10.0 mi Calm Calm - N/A   Clear
4:53 AM 37.0 °F - 19.9 °F 50% 30.00 in 10.0 mi Calm Calm - N/A   Clear
5:53 AM 39.0 °F 33.4 °F 21.0 °F 49% 29.99 in 10.0 mi SW 8.1 mph - N/A   Clear
6:53 AM 39.9 °F - 19.9 °F 45% 30.01 in 10.0 mi Calm Calm - N/A   Clear
7:53 AM 39.9 °F - 21.0 °F 47% 30.02 in 10.0 mi Calm Calm - N/A   Clear
8:53 AM 51.1 °F - 21.0 °F 31% 29.96 in 10.0 mi SW 12.7 mph - N/A   Clear
9:53 AM 55.9 °F - 19.0 °F 24% 29.93 in 10.0 mi SSW 20.7 mph 27.6 mph N/A   Clear
10:53 AM 61.0 °F - 16.0 °F 17% 29.89 in 10.0 mi SW 19.6 mph 26.5 mph N/A   Clear
11:53 AM 64.0 °F - 18.0 °F 17% 29.85 in 10.0 mi SW 25.3 mph 33.4 mph N/A   Clear
12:53 PM 64.9 °F - 19.0 °F 17% 29.82 in 10.0 mi SW 31.1 mph 43.7 mph N/A   Clear
1:53 PM 64.0 °F - 19.0 °F 18% 29.83 in 10.0 mi SW 27.6 mph 36.8 mph N/A   Clear
2:53 PM 64.9 °F - 19.0 °F 17% 29.80 in 10.0 mi SW 26.5 mph 39.1 mph N/A   Clear
3:53 PM 64.9 °F - 18.0 °F 16% 29.80 in 10.0 mi SW 21.9 mph 33.4 mph N/A   Clear
4:53 PM 64.0 °F - 18.0 °F 17% 29.79 in 10.0 mi SW 18.4 mph 25.3 mph N/A   Clear
5:53 PM 60.1 °F - 18.0 °F 20% 29.80 in 10.0 mi SW 16.1 mph 21.9 mph N/A   Clear
6:53 PM 57.0 °F - 19.9 °F 24% 29.82 in 10.0 mi WSW 17.3 mph 25.3 mph N/A   Clear
7:53 PM 53.1 °F - 21.0 °F 29% 29.85 in 10.0 mi WSW 13.8 mph - N/A   Clear
8:53 PM 53.1 °F - 21.9 °F 30% 29.81 in 10.0 mi WSW 13.8 mph - N/A   Partly Cloudy
10:53 PM 53.1 °F - 24.1 °F 32% 29.77 in 10.0 mi West 21.9 mph 29.9 mph N/A   Mostly Cloudy
11:53 PM 48.9 °F - 23.0 °F 36% 29.78 in 10.0 mi SW 11.5 mph - N/A   Overcast